Skip Navigation Links
NOAA logo - Click to go to the NOAA homepage
NOAA's National Weather Service
Alaska Aviation Weather Unit
  NWS logo - Click to go to the NWS homepage
Left Navbar Graphic     21 AKDT = 05 GMT

   
NOAA is celebrating 200 years of science, service, and stewardship. Visit the NOAA 200th celebration Web site to learn more.
USA.gov is the U.S. Government's official Web portal to all Federal, state and local government Web resources and services.
Facebook
NWS on Facebook

Important Change Regarding the AAWU Web Presence

 

Over the last several months, the AAWU has been working to navigate its webpages to a nationally supported server. Security, as well as other needs, have necessitated the change.  In the process, we have made an effort to enhance the functionality of our website, as well as some of our products. As of June 27, 2017, aawu.arh.noaa.gov will be discontinued. The new AAWU web address is weather.gov/aawu. It is now live and will run in-parallel with the old site until it is discontinued. Please send any feedback or questions regarding the new webpages to nws.ar.aawu.webauthors@noaa.gov.  Thank you for your patience during this time of transition.
AAWU Home :: Display TAF Add Bookmark
TAF PAWG 242338Z 2500/2524 06008KT P6SM -SHRA FEW005 SCT035 OVC050
      TEMPO 2500/2504 BKN035 OVC050
     FM251000 VRB05KT P6SM -RA SCT020 OVC030
      AMD LTD TO CLD VIS AND WIND 2506/2515=

METAR PAWG 242350Z 07006KT 10SM FEW008 BKN032 OVC070 14/12 A3015= PAWG 250150Z 08006KT 10SM FEW012 BKN030 OVC070 14/12 A3013= METAR PAWG 250250Z 08007KT 10SM FEW012 BKN030 OVC070 14/12 A3011= METAR PAWG 250350Z 00000KT 10SM FEW002 BKN030 BKN070 14/12 A3010= METAR PAWG 250450Z 07004KT 10SM VCSH FEW013 BKN028 BKN070 13/12 A3008=
 Alaska TAF Map

NOAA's National Weather Service
Alaska Aviation Weather Unit
6930 Sand Lake Road
Anchorage, AK 99502-1845
Disclaimer
Credits
Glossary
Privacy Policy
About Us
Career Opportunities
Contact AAWU Internet Services Site last modified: April, 17th 2012